Theta_e
318 315 315 318 323 328 331 332 332 332 331 332 333 333 332 332 332 332 333 333 334 335 335 335 334 331 328 325 321 317 313 311 310 310 311 313 320 326 327 326 323 320 323 328 330 332 331 329 327 325 322 318 314 311 311 311 311 311 311 311 311 314 316 318 319 321 324 326 324 324 328 329 328 326 323 323 322 321 320 321 321 323 325 325 325
320 316 316 319 321 323 325 326 327 327 327 329 330 331 332 332 332 333 333 334 333 333 332 332 332 329 326 323 320 316 312 311 311 310 311 313 316 317 317 317 316 314 318 323 325 326 325 325 323 319 317 315 314 311 311 311 311 311 311 312 313 315 317 318 319 320 322 325 324 325 328 329 330 329 328 328 324 320 318 317 318 318 319 320 321
318 318 317 319 320 319 318 317 318 319 318 320 324 328 331 332 332 333 333 334 333 332 330 329 329 326 324 322 318 314 312 311 311 311 312 312 312 313 312 312 312 312 317 322 323 323 324 324 321 318 317 314 313 311 311 311 311 312 312 313 314 317 318 319 320 320 321 322 321 323 328 327 328 328 328 326 320 318 316 314 313 312 314 315 313
317 318 318 318 317 315 314 313 313 311 311 315 321 326 330 331 332 333 333 334 334 332 330 327 325 324 323 320 316 313 311 311 312 313 313 313 313 313 312 311 311 312 315 319 319 322 323 322 321 318 315 311 312 312 311 311 311 312 313 314 315 317 320 321 321 321 321 321 320 320 322 323 325 325 324 321 318 317 315 313 311 309 310 310 308
318 318 318 317 316 314 311 312 313 312 315 319 322 326 329 331 332 332 333 333 333 332 330 326 321 321 320 317 314 312 312 312 313 314 313 312 314 313 312 312 312 311 313 317 318 320 322 321 321 318 312 311 312 312 312 311 311 312 312 313 315 318 320 322 323 323 322 322 322 321 321 322 324 324 323 320 318 317 315 313 311 310 308 307 306
318 318 318 318 318 315 312 313 315 317 320 322 325 328 330 331 332 332 333 332 332 331 328 323 319 318 316 314 316 318 318 317 315 314 314 312 313 313 312 312 312 312 312 316 318 319 321 321 320 316 311 311 311 313 313 312 311 311 312 313 315 317 320 322 324 325 325 325 325 325 325 324 323 323 322 320 315 314 313 311 310 309 308 307 306
317 317 317 317 318 317 315 315 317 320 321 323 329 330 331 331 331 331 332 331 331 329 325 321 318 316 313 311 315 319 319 319 315 313 314 312 312 312 312 312 311 312 311 315 317 317 320 321 321 318 314 313 312 313 315 313 311 311 311 312 313 316 319 321 324 326 326 327 327 327 326 325 324 323 322 320 316 315 314 312 310 308 307 306 306
317 316 315 315 315 315 316 316 318 319 320 325 331 331 330 331 331 331 331 331 328 324 320 319 318 313 310 310 313 318 319 315 312 312 313 311 312 312 311 312 311 312 311 312 314 314 318 321 321 319 317 314 312 314 319 319 314 310 312 312 313 314 316 319 321 323 324 324 324 324 323 322 321 320 319 318 317 316 316 315 311 307 307 306 306
318 316 314 313 312 313 313 315 318 319 319 325 329 329 330 330 331 331 330 328 324 319 317 319 317 310 313 316 315 316 316 311 310 311 312 311 311 311 310 311 311 311 311 311 312 314 317 319 320 319 317 314 311 313 318 320 315 310 312 312 314 315 316 316 317 318 319 318 318 317 316 315 314 314 314 315 314 313 315 314 309 307 307 306 306
318 316 314 312 311 311 312 316 320 320 320 324 327 328 330 330 331 330 329 327 321 317 314 315 314 312 318 322 320 317 315 312 311 310 311 311 310 310 310 310 311 311 311 311 312 314 316 317 319 318 315 313 311 311 313 315 314 312 312 313 314 315 317 317 316 316 316 316 315 314 313 313 313 313 315 316 313 309 311 309 307 307 307 307 306
318 316 314 312 311 311 312 317 320 322 322 324 328 328 330 331 330 329 327 323 319 314 312 312 312 315 320 323 324 322 320 316 313 311 310 311 311 311 310 311 311 312 313 312 311 312 315 316 318 319 315 312 311 311 311 312 313 313 313 313 314 316 318 318 317 317 317 316 315 315 314 314 313 316 317 314 310 307 308 307 307 308 306 307 306
319 316 314 312 310 310 312 316 317 320 325 327 328 327 328 330 328 326 324 320 316 312 312 314 314 318 321 324 323 318 318 315 312 311 311 312 313 312 310 310 310 311 312 312 311 310 314 315 318 319 315 312 311 311 311 312 313 314 313 314 315 317 320 319 318 318 318 317 316 316 315 315 314 318 319 313 309 310 309 308 307 307 307 307 307
320 317 314 312 310 310 310 312 313 317 325 328 326 325 327 327 325 323 321 317 313 311 314 315 316 319 320 324 323 315 315 313 309 310 310 311 310 310 309 309 309 310 310 310 310 310 312 314 317 318 313 311 311 312 312 312 313 313 313 313 315 318 320 320 320 319 317 317 316 316 315 315 316 319 320 315 313 314 313 312 308 308 309 309 309
321 318 315 313 311 310 309 310 311 313 321 323 323 327 327 323 320 318 317 314 312 311 312 313 314 318 319 322 323 318 317 313 309 309 308 309 308 309 309 309 310 311 311 311 311 311 311 312 314 313 311 312 312 312 313 313 313 313 313 314 316 318 320 319 319 318 317 317 317 317 316 316 318 321 320 316 317 316 314 314 311 311 312 312 312
323 320 317 314 311 310 310 310 311 312 315 318 322 327 326 320 317 314 313 312 311 310 309 310 310 316 318 317 321 322 321 315 313 311 308 309 308 309 309 310 312 312 313 313 312 312 312 312 312 312 312 313 313 313 313 313 313 313 313 314 316 318 319 319 318 317 317 317 317 317 317 317 318 321 321 319 320 317 315 315 313 313 313 314 314
325 322 319 315 312 310 310 310 310 311 311 315 320 323 322 318 315 312 311 310 310 309 309 310 308 312 315 313 316 320 318 315 314 311 308 308 308 309 310 312 313 313 313 313 313 313 313 312 312 312 313 313 313 313 312 313 312 312 313 314 316 317 317 317 317 317 317 316 316 317 317 317 317 321 322 320 320 317 317 317 315 314 315 315 315
327 323 320 316 313 311 310 310 310 310 310 313 317 319 319 317 315 312 311 310 309 309 308 309 309 310 312 310 312 314 313 312 313 310 308 308 308 310 312 313 314 314 314 314 314 313 313 313 312 312 312 312 312 312 312 312 313 313 313 315 316 316 316 317 317 317 317 317 317 317 317 317 317 321 322 320 321 319 319 318 316 316 316 317 317
329 324 321 317 314 311 310 311 310 310 311 312 313 315 315 314 313 311 310 310 309 309 309 309 309 309 310 309 309 309 310 310 311 309 308 309 309 312 313 314 314 315 315 315 315 315 314 313 313 313 313 313 313 313 313 313 314 314 315 316 316 317 317 317 318 318 318 318 318 318 317 318 317 320 322 321 323 322 321 318 317 318 318 318 317
331 326 321 318 315 313 311 310 310 310 310 311 311 311 311 311 310 310 309 310 310 309 309 309 309 309 309 309 308 308 308 308 309 308 308 309 311 313 314 315 315 316 317 317 316 316 316 315 315 315 315 315 315 315 315 316 316 316 317 318 318 318 319 319 319 319 319 319 319 319 319 319 318 320 322 322 322 322 321 319 319 319 318 319 318
331 329 323 319 317 315 313 311 310 310 310 310 310 310 309 309 309 310 309 309 309 309 309 309 309 309 309 308 308 308 308 308 308 308 309 310 312 313 314 315 316 317 317 317 317 317 317 317 316 316 316 317 317 318 318 318 318 318 318 319 319 319 320 320 320 320 320 320 320 320 320 320 319 320 322 322 322 321 321 321 321 320 319 320 320
330 330 325 321 319 317 315 313 312 311 310 310 309 309 309 309 309 309 310 309 309 309 309 309 309 309 309 308 308 308 308 308 308 308 310 311 313 314 315 316 316 317 317 317 317 317 317 317 317 317 317 317 318 318 318 319 319 319 319 320 320 320 320 320 321 321 321 321 320 320 320 320 320 320 321 322 321 322 322 322 322 321 320 320 320
329 330 328 323 320 319 318 317 315 314 312 311 310 310 310 309 310 310 310 310 309 310 309 309 309 309 309 308 308 308 307 307 308 309 310 311 313 315 315 316 316 317 317 317 317 317 317 317 318 318 318 318 318 319 319 319 320 320 320 320 320 321 321 321 321 321 321 321 321 321 321 320 321 320 321 321 321 322 322 322 321 321 321 321 321
328 329 330 326 322 320 320 319 318 317 316 314 313 311 310 310 310 310 310 310 310 310 310 309 309 309 309 308 308 308 308 307 308 309 310 312 314 315 316 316 316 317 317 317 317 317 318 318 318 318 319 319 319 320 320 320 321 321 321 321 322 322 322 322 322 322 322 322 321 321 321 321 321 320 320 321 321 321 321 321 322 321 321 321 321
328 328 330 329 326 322 321 321 320 320 319 317 315 314 313 311 310 310 310 310 310 310 310 310 309 310 309 309 308 308 308 307 309 310 311 313 315 315 316 316 316 317 317 317 317 318 318 318 319 319 320 320 320 321 321 322 322 322 323 323 323 323 323 323 323 323 322 322 322 321 321 321 321 320 320 320 320 320 320 319 321 322 321 322 322
328 328 329 330 329 325 322 322 321 322 321 319 317 316 315 313 312 311 310 310 310 310 310 310 310 310 310 309 309 308 308 308 309 311 312 314 315 315 315 316 316 317 317 317 318 318 319 319 319 320 320 321 321 322 322 322 323 323 324 324 324 323 323 323 323 323 323 322 322 322 322 321 321 320 319 319 319 319 318 318 319 320 321 322 322
330 330 329 330 331 328 324 323 323 323 323 322 319 318 317 317 315 313 311 310 310 310 311 311 311 311 311 311 310 309 309 310 311 312 313 314 315 315 316 316 317 317 317 318 318 318 319 320 320 321 321 322 322 323 323 324 324 324 324 324 324 324 323 323 323 322 322 322 322 322 322 322 321 321 320 319 319 319 318 319 318 318 319 320 321
330 330 329 330 331 330 327 326 325 324 324 324 321 319 319 319 318 316 314 312 311 311 312 312 312 312 312 312 311 311 311 312 312 313 314 315 316 316 316 317 317 317 318 318 319 319 320 320 321 322 322 323 324 324 325 325 325 324 324 324 323 323 323 323 323 323 322 322 321 321 322 322 322 321 321 320 320 320 320 320 320 319 319 319 319
330 330 330 330 331 330 329 328 327 325 325 325 323 321 320 319 319 319 317 314 313 313 313 313 314 314 314 313 313 312 313 314 314 315 315 316 316 317 317 318 318 318 319 319 320 321 322 322 323 324 324 325 325 325 324 324 324 323 323 322 322 322 322 323 324 323 322 322 321 321 321 321 321 321 321 320 320 320 321 321 321 321 320 320 320
330 330 330 330 330 330 329 329 328 326 326 326 325 323 321 320 319 320 320 318 316 314 315 316 317 317 316 316 315 314 315 316 316 316 317 317 318 318 319 319 320 320 321 322 322 323 323 324 324 325 325 325 325 324 323 323 322 321 321 320 319 319 320 322 323 323 322 321 321 321 321 320 319 319 320 320 320 320 320 320 321 321 321 321 320
328 328 329 330 330 330 329 328 327 327 327 326 326 325 323 321 319 320 321 321 319 317 316 317 318 319 319 319 318 318 318 318 319 319 319 320 321 321 322 322 322 323 323 323 323 324 324 325 325 325 326 326 325 324 323 322 321 321 320 319 318 318 320 321 322 322 321 321 321 321 321 319 319 319 319 320 320 320 320 320 321 321 322 322 321
327 327 329 330 330 330 329 327 327 327 326 326 325 326 325 322 320 320 321 321 321 319 317 317 319 320 320 321 321 321 321 321 321 322 322 322 323 323 323 323 324 324 324 324 324 324 325 325 325 325 326 326 325 323 323 322 321 320 318 318 319 319 320 321 321 321 321 321 321 321 321 320 319 320 320 321 320 320 321 321 321 322 322 322 322
327 327 328 330 330 329 328 328 327 327 326 325 325 325 324 324 322 321 321 322 322 321 319 319 320 321 322 322 322 322 322 322 323 323 323 323 323 324 324 324 324 324 324 324 325 324 325 325 325 325 325 325 323 322 321 320 319 318 318 319 319 319 320 321 321 321 321 320 319 319 320 321 321 321 321 321 321 320 320 321 322 322 322 321 322
326 327 329 330 330 329 328 328 328 328 326 325 325 324 324 324 323 322 322 322 322 321 321 321 321 322 323 323 323 323 323 323 323 323 324 324 324 324 324 324 324 324 324 324 324 325 325 325 325 325 324 323 321 320 319 318 318 318 320 321 321 321 322 322 322 322 321 320 319 318 318 319 319 319 320 320 320 320 320 320 322 322 321 321 322
326 327 328 329 329 329 328 329 328 328 327 326 325 325 325 325 324 323 323 323 322 322 321 321 322 322 323 323 323 324 324 324 324 324 324 324 324 324 324 324 324 324 325 325 325 325 324 324 324 323 322 321 320 320 319 318 318 319 320 321 321 322 322 322 322 321 321 319 318 318 318 318 318 318 319 319 319 319 319 320 321 321 320 320 320
326 326 326 326 327 328 328 328 328 327 327 327 326 325 324 324 324 324 324 324 324 323 323 322 322 323 324 324 324 324 324 324 324 325 324 325 325 325 325 324 324 324 324 323 323 323 323 322 322 321 320 320 320 319 320 320 320 320 320 319 319 320 320 320 320 320 321 319 318 318 319 318 318 318 318 317 317 318 318 319 320 319 319 319 319
325 326 326 325 325 326 326 325 325 325 326 326 325 325 324 324 324 324 324 325 325 324 324 324 324 324 324 324 324 324 325 325 325 324 324 325 325 324 324 324 324 324 324 323 322 322 322 321 321 320 319 319 319 319 320 321 321 321 319 318 318 319 319 319 319 320 319 318 317 317 318 317 317 318 318 317 316 316 316 317 317 317 317 317 318
325 325 325 325 324 324 324 324 323 323 324 325 325 324 324 324 324 324 326 326 325 324 324 324 324 324 323 323 324 324 324 325 325 324 324 325 324 324 324 323 323 322 323 322 322 321 321 320 319 319 319 319 319 319 320 322 322 322 320 318 318 318 319 320 322 321 318 316 316 317 316 316 316 317 317 315 313 313 313 313 313 314 314 314 315
325 325 325 325 324 324 323 322 322 322 323 324 324 324 324 324 323 324 327 327 326 325 325 325 324 324 323 323 324 324 324 324 324 323 324 324 324 323 322 322 321 321 321 321 320 320 319 319 318 318 320 320 320 320 322 324 323 321 320 321 321 319 318 319 321 321 318 314 315 314 314 315 315 314 313 312 312 311 311 311 311 311 311 311 311
324 325 325 325 325 324 324 323 322 322 322 323 324 325 325 325 325 326 328 328 326 325 325 325 325 324 324 325 324 324 324 324 323 323 324 324 324 323 322 322 321 321 324 323 321 321 320 320 319 319 320 320 319 321 323 324 322 320 321 323 323 319 316 316 318 318 315 313 313 312 312 313 312 312 311 310 310 308 307 307 307 307 307 307 306
323 324 325 325 325 325 324 324 323 323 323 324 324 325 326 326 327 328 328 327 326 325 324 325 326 326 326 325 324 323 323 323 323 323 323 323 323 322 322 323 322 324 327 324 321 322 322 322 322 321 321 321 320 321 323 323 321 321 321 321 320 317 314 313 314 314 313 312 312 312 311 311 311 310 308 306 305 304 303 303 303 303 302 302 301
322 323 324 324 324 324 324 323 323 324 324 324 324 325 325 326 327 327 328 328 326 324 324 325 326 327 326 326 325 325 324 323 324 324 324 323 323 323 324 324 324 324 325 322 320 321 322 322 323 323 322 322 320 320 322 322 320 320 318 316 315 314 313 312 313 312 312 311 311 311 310 309 308 306 304 302 302 301 300 300 300 300 300 300 300
319 321 322 322 323 323 323 322 323 324 324 324 324 325 324 325 325 325 327 327 325 322 322 323 325 326 326 325 325 325 325 325 326 325 325 325 325 325 326 325 324 322 321 321 321 321 322 322 323 324 324 323 322 321 321 320 319 318 317 314 313 312 312 312 312 311 310 310 310 309 308 306 304 302 301 301 300 300 300 299 299 299 299 299 299
317 319 320 320 321 322 321 321 322 322 324 325 325 324 324 325 326 326 326 326 325 323 322 322 324 325 325 325 325 325 326 326 326 325 325 325 325 326 326 324 322 321 320 323 325 324 324 323 321 325 326 324 324 323 322 320 318 318 317 315 314 312 312 312 310 309 310 309 307 307 305 303 302 300 300 300 300 299 299 299 299 299 299 299 298
316 317 318 319 320 320 320 319 320 321 323 324 325 325 326 327 328 328 327 327 326 326 325 323 323 325 325 326 326 325 325 324 324 324 323 323 324 325 324 322 323 324 323 324 325 326 329 325 320 323 324 322 323 322 321 319 317 316 315 315 314 313 315 313 310 308 308 306 305 304 303 301 301 300 299 299 299 299 299 299 299 299 299 298 298
314 315 316 317 318 318 319 319 319 320 322 323 325 326 328 328 329 329 329 328 327 327 326 324 322 322 323 325 325 323 324 324 323 323 323 323 325 327 326 323 323 327 326 325 324 324 326 323 320 321 322 320 320 318 317 315 313 313 313 314 314 314 316 314 310 309 306 303 304 302 301 301 300 300 299 299 299 299 299 299 299 299 298 298 298
313 314 314 315 316 317 318 319 319 320 321 322 325 327 328 328 328 329 328 326 325 325 324 323 321 320 320 322 321 322 327 329 324 323 324 326 328 328 328 327 324 327 328 327 326 324 321 319 318 319 319 317 315 314 313 312 311 311 311 312 313 314 315 312 309 308 303 300 301 300 300 300 300 299 299 299 299 299 299 299 299 299 298 298 297
313 313 314 314 315 316 317 319 319 319 320 322 325 327 327 328 328 327 327 326 324 323 322 322 322 320 320 321 320 321 326 327 324 324 323 325 329 328 329 328 324 325 327 325 324 321 317 315 315 315 314 313 312 311 310 310 309 309 309 309 309 309 309 306 305 304 300 298 299 298 298 298 299 299 298 298 299 298 299 299 299 298 298 297 297
313 314 314 314 314 315 316 317 318 319 320 322 324 326 326 327 327 327 328 327 326 325 325 325 324 322 322 321 321 321 320 320 320 323 323 324 326 325 325 323 320 320 322 320 318 316 313 313 313 312 312 311 310 309 308 307 306 306 306 305 303 302 301 300 299 299 297 297 297 298 298 297 298 298 298 298 298 298 298 298 298 298 297 297 296
313 313 313 313 313 314 315 316 317 318 319 321 323 324 325 326 327 328 328 327 327 327 328 327 325 324 324 322 322 321 320 322 323 323 324 324 322 319 319 319 318 317 317 317 316 314 312 311 311 310 309 308 307 306 305 304 303 302 302 301 300 299 298 298 297 297 296 296 297 298 297 297 298 298 298 297 297 297 297 297 297 296 296 296 296
313 313 313 313 314 314 315 315 316 317 318 320 321 323 324 326 327 328 328 328 328 329 328 328 327 325 324 323 322 320 319 322 324 322 322 322 319 317 317 318 317 315 314 314 313 312 311 310 309 307 306 305 304 303 303 302 301 300 300 299 298 298 298 298 297 297 297 296 296 297 297 297 297 298 298 297 297 297 296 296 296 295 295 295 295
314 314 313 313 313 314 315 315 315 316 318 319 321 322 324 325 327 327 328 328 328 329 328 329 327 324 324 323 321 320 319 320 321 320 320 319 317 316 315 314 313 312 312 312 311 310 308 307 305 304 304 303 302 302 301 300 300 299 298 298 298 297 297 297 296 296 296 296 296 297 297 296 297 298 298 297 297 297 296 296 295 295 295 295 295
Wind_Speed
14 12 11 11 11 10 9 8 8 7 6 6 6 6 6 6 7 7 7 7 6 6 7 7 7 7 7 7 8 8 8 9 9 10 10 10 10 9 8 7 7 7 8 8 8 7 5 4 2 1 2 4 5 7 8 8 9 8 8 8 8 7 8 10 10 11 12 12 12 15 16 15 16 16 15 15 13 12 12 13 12 12 12 11 10
14 13 12 11 11 9 8 7 7 6 6 6 6 6 6 6 6 6 7 7 6 4 4 5 5 5 6 6 7 7 7 8 10 11 11 10 9 8 8 8 7 7 8 8 7 7 7 6 4 4 4 4 6 7 8 9 9 9 9 9 9 9 8 9 9 9 10 11 11 14 14 13 14 14 14 13 10 10 11 11 10 9 9 8 7
14 14 12 11 10 9 8 7 6 6 6 6 6 6 6 6 6 6 5 5 4 3 2 4 4 4 4 5 6 6 6 8 11 11 11 10 10 9 9 9 8 8 9 9 8 9 10 9 7 7 7 7 7 8 8 9 10 10 10 10 10 9 9 9 9 9 8 8 8 10 12 11 11 11 10 7 6 8 10 9 8 8 8 6 5
13 13 12 10 9 8 8 7 6 5 6 6 7 8 7 6 6 6 5 4 3 3 2 3 3 3 3 4 5 6 7 9 11 11 11 10 10 10 10 10 9 9 10 9 9 10 10 9 9 8 9 9 8 8 8 8 9 10 10 11 10 10 10 9 9 8 8 7 7 7 8 8 8 7 4 3 4 7 7 8 8 8 7 6 6
12 12 11 10 8 8 8 7 6 6 8 7 7 9 9 7 6 6 5 4 3 2 2 3 3 3 2 4 6 7 7 8 10 11 11 11 11 11 10 10 9 9 10 9 9 10 10 10 9 9 9 9 8 8 8 9 11 11 12 12 11 11 10 9 9 8 7 7 6 6 7 7 7 7 5 4 4 5 6 8 9 9 8 8 9
12 11 11 10 9 8 8 7 7 8 8 8 8 9 10 8 7 6 5 3 2 1 2 3 4 5 5 7 9 9 10 10 10 11 11 11 11 10 10 9 9 8 9 9 9 9 9 9 9 9 10 9 8 9 9 10 11 12 13 13 12 11 10 9 8 8 7 6 5 5 6 6 5 5 5 5 5 6 8 9 9 9 10 10 11
11 11 11 10 10 9 8 8 8 8 9 9 10 10 9 8 7 6 4 2 2 1 2 3 5 7 8 9 9 9 11 11 11 11 11 11 10 10 9 8 9 9 9 8 9 8 9 9 9 10 10 9 9 9 10 11 12 13 13 13 12 11 10 9 8 7 5 4 3 3 4 5 6 6 6 7 7 8 9 10 9 9 9 10 11
10 10 10 10 9 9 8 9 9 8 9 10 11 10 9 7 6 5 4 3 2 3 3 4 6 7 9 10 9 9 10 11 11 10 10 9 9 9 8 8 9 8 8 8 8 8 8 9 9 9 9 9 9 10 11 11 12 13 13 13 13 11 10 8 7 6 4 4 4 5 6 8 8 9 9 10 9 9 9 10 9 8 8 9 10
10 9 9 9 9 9 9 10 10 9 9 10 11 9 8 7 6 5 4 3 2 3 5 6 7 7 8 10 10 9 10 11 11 9 9 10 9 9 9 9 9 8 8 8 8 8 8 8 8 8 9 9 9 10 10 9 11 13 13 13 13 12 10 9 8 6 5 5 6 7 7 9 8 8 8 9 8 8 7 8 7 7 8 9 10
10 9 9 9 9 9 10 10 10 10 10 10 10 9 8 7 6 6 5 3 2 4 5 6 6 7 8 10 10 10 10 11 10 9 9 10 10 10 10 10 10 9 9 8 8 8 7 7 7 8 8 8 8 9 9 9 10 12 14 14 13 13 11 10 9 8 8 8 8 9 10 11 11 10 9 8 8 7 5 5 6 7 9 9 10
10 10 9 9 10 10 10 11 10 10 10 11 11 9 8 8 6 5 5 3 3 4 6 6 5 6 8 9 9 9 10 10 11 10 10 10 10 11 11 10 10 9 9 8 7 7 7 7 7 8 8 7 8 9 9 10 11 13 14 15 14 13 12 12 12 12 11 11 11 12 14 13 12 12 10 9 9 9 7 5 7 8 9 9 10
11 10 9 9 10 10 10 11 10 10 10 11 11 9 10 8 6 5 5 4 3 5 7 7 7 7 8 9 8 9 9 10 11 10 10 10 10 10 11 10 10 9 9 8 7 7 6 7 6 7 7 7 8 8 9 10 12 13 14 14 14 13 13 13 14 14 14 14 14 15 15 14 13 12 9 10 11 11 9 7 8 9 10 10 11
11 10 9 9 10 10 10 11 11 11 12 11 10 9 9 8 6 6 4 4 4 6 7 7 7 6 7 9 8 8 8 10 10 10 9 9 9 10 10 10 9 10 9 9 8 7 6 7 7 7 7 7 7 8 9 11 12 13 13 13 13 13 13 14 14 15 16 16 16 17 16 16 15 12 8 9 11 11 10 8 10 11 13 13 13
9 9 9 9 9 9 10 10 10 11 13 12 10 9 8 7 6 6 5 5 5 6 6 6 6 5 6 8 8 8 8 10 10 9 9 8 9 9 9 10 10 10 9 9 8 7 7 6 6 6 6 6 8 9 10 11 12 12 12 12 12 13 14 14 15 15 16 16 17 17 17 17 15 11 8 9 10 11 10 9 13 13 14 15 15
7 8 8 8 9 9 9 8 8 9 10 11 11 9 7 7 6 6 6 6 5 5 5 5 5 4 5 8 9 9 8 9 9 9 8 8 8 9 9 9 10 10 9 9 9 8 7 7 6 7 7 7 8 9 10 11 11 11 12 12 12 13 13 14 14 15 16 16 16 16 16 17 14 11 10 10 9 10 10 10 14 15 15 15 15
7 6 6 8 8 8 8 7 7 7 8 10 12 10 6 5 5 5 5 5 6 5 4 4 4 4 6 8 9 9 8 8 8 8 8 7 8 8 9 9 9 10 9 10 9 9 8 8 8 9 8 8 8 9 10 10 10 10 11 11 12 13 13 14 14 15 16 16 16 16 16 17 16 12 10 12 10 9 9 11 15 16 17 18 17
8 6 5 6 7 7 7 7 7 7 7 8 10 10 7 5 3 3 4 5 5 4 4 4 4 5 7 8 8 8 8 7 7 8 8 7 7 8 8 9 10 10 10 10 10 9 10 10 10 10 10 9 9 9 9 10 11 11 11 11 12 13 14 14 15 15 15 16 16 16 16 16 16 11 10 13 12 10 9 13 17 17 20 20 19
9 8 6 6 7 7 7 7 7 7 7 8 8 8 7 5 3 3 4 4 4 4 4 4 4 6 6 7 7 8 8 7 8 9 8 7 7 7 8 9 10 11 10 10 10 11 11 11 11 11 10 10 10 10 10 10 11 11 12 12 13 13 14 15 14 15 14 15 15 15 15 15 16 12 11 12 14 14 11 15 18 18 21 21 22
11 10 8 6 7 6 7 7 7 7 7 7 7 6 6 4 4 3 3 4 5 5 5 4 5 6 6 6 7 7 7 7 8 8 8 7 7 8 8 9 10 10 10 11 11 12 12 11 11 11 10 10 10 10 10 10 11 12 12 13 13 14 14 14 14 14 14 14 14 14 15 14 15 13 11 11 12 12 13 17 17 19 23 24 25
13 12 10 8 8 7 7 7 7 7 6 6 5 5 5 4 3 3 3 4 4 4 4 4 4 5 5 6 6 7 7 7 8 8 7 7 7 8 8 8 9 9 10 11 11 11 11 11 10 10 10 10 10 10 11 11 11 11 12 13 13 14 14 15 14 15 14 14 14 14 14 14 15 14 11 11 11 12 15 18 18 20 23 24 24
16 14 12 10 9 8 7 7 7 6 5 5 4 4 4 4 3 3 3 3 3 3 3 4 4 4 4 5 6 6 7 7 8 7 7 7 7 7 7 8 8 8 9 9 10 10 10 10 10 10 9 10 10 10 10 11 11 11 12 12 13 14 14 15 15 15 14 14 14 14 14 14 14 15 12 11 12 13 16 17 18 21 22 23 23
18 16 14 12 11 9 9 8 7 6 4 4 4 4 4 4 4 3 3 3 3 3 3 3 4 4 4 4 5 6 6 7 7 7 6 6 6 7 7 7 7 7 8 8 9 9 9 9 8 9 9 9 9 9 10 10 11 11 11 12 12 13 14 14 14 14 14 14 15 15 15 15 15 15 14 12 12 13 14 16 18 21 22 21 20
20 19 16 14 12 10 9 8 7 5 4 4 3 4 4 4 4 4 4 4 4 4 4 4 3 4 4 4 4 5 5 6 6 6 6 6 6 6 6 6 6 6 7 7 7 8 8 8 8 8 8 9 9 9 10 10 10 11 11 12 12 12 13 14 14 14 14 14 15 16 16 16 16 16 15 13 12 13 14 15 17 20 20 20 18
22 20 18 15 14 12 10 9 8 6 4 3 3 3 3 3 3 3 4 4 4 4 4 3 3 3 3 4 3 4 4 5 5 5 5 5 5 5 5 5 5 5 5 6 6 6 6 7 7 8 8 8 9 9 10 10 11 11 11 11 12 12 12 13 14 14 15 15 16 16 17 17 17 17 17 15 14 14 13 13 15 18 19 19 19
22 21 19 17 15 14 12 11 9 7 5 4 3 3 2 2 2 3 4 4 4 4 4 3 3 3 3 3 3 4 4 5 5 5 5 5 5 4 4 4 4 4 4 5 5 5 5 6 6 7 8 8 9 9 9 10 11 11 12 12 12 12 13 13 14 15 15 16 17 18 18 18 17 17 17 16 15 15 15 14 13 15 18 19 20
23 22 21 18 16 15 14 12 10 9 7 5 4 4 3 2 2 3 4 4 4 3 3 3 3 3 3 3 3 3 4 4 4 5 5 4 4 3 3 3 3 3 3 4 4 5 5 5 6 7 7 8 9 10 10 11 11 12 12 12 13 13 13 14 14 15 15 16 17 18 18 18 18 17 17 16 16 16 16 16 15 14 15 17 19
23 22 21 19 17 16 15 14 13 11 10 8 7 6 4 3 3 3 3 3 3 3 3 4 4 3 3 3 2 3 3 4 4 4 4 4 3 3 2 2 2 2 3 3 4 5 6 6 7 7 8 9 10 10 11 12 12 12 12 12 13 13 14 15 15 16 16 17 18 18 18 18 19 18 18 17 17 17 16 17 17 17 16 17 17
24 22 21 19 18 16 16 15 14 13 12 11 9 8 7 5 5 3 3 3 2 3 4 4 4 4 3 3 3 3 3 3 3 3 3 3 2 2 1 1 2 3 3 4 5 6 7 7 8 9 9 10 10 10 11 11 12 12 13 13 13 13 14 15 16 18 18 19 19 18 19 19 19 19 19 19 19 19 19 18 19 19 20 20 20
24 22 21 20 18 17 17 16 15 14 14 13 11 10 9 8 6 4 3 3 2 4 5 4 4 4 4 3 3 4 3 3 3 3 3 2 2 1 1 2 3 4 4 5 6 7 8 8 9 10 10 11 11 11 12 12 14 15 16 16 16 15 14 14 16 18 18 18 19 19 19 19 19 19 19 20 20 20 20 20 21 21 21 22 22
24 22 22 20 19 18 17 16 15 15 15 14 12 11 11 10 7 6 6 5 4 5 5 5 5 4 4 4 4 4 4 4 3 3 3 3 2 2 3 4 4 5 6 7 8 9 9 10 10 11 12 12 12 13 15 15 16 17 19 20 19 18 16 15 16 18 17 17 18 19 18 18 17 18 18 18 19 20 20 21 21 22 22 23 23
24 24 23 21 20 19 18 16 16 16 16 14 13 13 12 11 9 8 8 7 7 7 6 6 5 5 5 5 4 5 5 5 4 4 4 5 4 5 5 6 7 8 9 9 10 11 12 12 12 13 13 13 14 15 16 17 18 19 20 20 18 17 17 16 17 18 18 18 19 19 19 18 17 17 17 17 18 18 19 20 21 22 23 23 24
26 25 23 21 21 20 18 17 17 17 17 15 14 13 12 12 11 10 10 9 10 10 8 7 7 6 7 6 6 6 6 7 7 7 7 7 8 8 8 8 9 11 12 12 13 13 14 14 14 14 14 15 16 16 18 20 21 21 20 17 15 16 16 17 18 19 20 21 20 20 20 18 17 17 18 18 18 19 20 21 21 22 23 23 23
25 24 23 23 22 21 19 19 19 18 17 16 15 14 13 13 12 12 11 11 11 11 11 10 9 9 9 9 9 9 9 9 10 10 10 10 10 10 11 12 12 13 14 15 15 16 17 17 17 16 16 18 18 18 20 22 22 20 17 14 14 15 16 17 18 20 21 21 20 20 19 19 19 19 19 19 19 20 20 21 21 22 22 22 22
22 22 23 24 23 22 21 20 20 20 18 17 16 16 15 14 14 13 12 11 11 12 13 13 13 13 12 12 12 11 11 12 12 12 12 12 12 12 13 14 15 15 16 17 18 18 19 19 19 18 18 19 19 18 18 18 16 14 13 13 14 15 17 17 18 19 20 19 19 18 17 16 16 17 17 17 18 18 19 19 20 21 22 22 22
23 23 23 22 22 22 22 22 22 21 20 19 18 17 16 15 15 14 13 12 12 12 13 14 14 14 14 14 13 13 13 13 13 13 13 13 13 14 15 15 15 16 17 18 18 19 19 19 20 20 20 18 16 13 12 13 13 13 14 15 16 16 17 17 18 19 18 18 17 15 14 14 15 16 16 16 16 17 18 19 20 21 22 22 23
25 24 23 22 22 22 23 23 23 22 22 21 19 18 17 16 16 15 14 13 13 14 14 14 15 15 15 15 14 14 14 14 14 14 14 14 14 14 15 16 16 16 17 17 18 19 19 19 19 19 18 15 12 10 10 13 14 16 16 15 16 16 16 17 18 18 18 17 14 12 14 15 16 15 15 16 17 18 19 20 20 21 22 22 23
26 25 24 23 23 23 23 24 23 22 22 21 19 18 18 17 16 15 14 14 14 14 14 14 15 15 15 15 15 14 14 14 15 15 15 15 15 14 16 17 16 15 15 15 16 16 16 16 16 16 14 12 11 11 13 15 17 18 16 15 14 15 16 16 16 17 18 15 12 14 17 17 15 15 16 18 20 20 19 19 19 20 20 21 21
28 27 26 25 24 23 24 24 23 22 21 21 19 18 17 17 16 16 15 15 15 15 15 16 15 16 16 15 15 15 15 14 14 15 15 16 16 14 15 16 14 13 14 14 14 14 13 14 13 11 10 11 11 13 15 16 17 18 17 16 17 17 18 17 16 16 15 13 13 17 19 17 15 16 18 20 20 21 20 20 19 19 19 19 19
30 29 28 27 26 25 25 24 23 22 21 20 19 18 18 18 18 17 18 18 17 17 18 17 16 16 15 15 16 16 15 15 15 15 15 15 15 13 13 13 13 12 14 15 15 14 12 10 9 9 8 10 12 14 15 15 17 18 18 19 20 19 19 18 17 15 13 15 17 18 17 16 18 19 20 20 20 20 20 19 19 19 18 18 19
31 31 30 30 28 27 26 25 24 22 21 20 20 20 20 20 20 20 21 20 19 19 19 18 17 16 15 15 17 16 14 14 13 13 13 13 12 11 11 11 11 11 14 16 14 12 10 8 9 10 11 11 11 12 13 15 17 18 19 20 20 20 19 17 16 14 15 18 17 16 17 18 20 20 20 20 20 20 20 20 19 20 20 21 21
32 32 33 32 30 29 28 27 25 23 22 22 21 21 22 22 22 22 23 21 20 20 20 19 18 18 17 17 17 16 15 13 12 13 13 13 12 11 10 11 11 10 12 13 11 8 8 8 10 11 11 13 12 10 12 17 19 20 21 21 21 21 19 17 15 16 19 18 16 17 20 21 20 20 20 20 21 22 22 21 22 23 23 24 24
32 33 33 32 31 30 30 29 26 25 24 23 22 21 21 21 21 21 21 20 20 19 19 19 19 18 18 18 17 16 15 14 14 15 15 15 13 12 12 13 12 10 9 8 7 7 8 10 12 12 12 14 14 13 15 18 19 20 23 24 23 20 18 16 16 20 20 17 18 21 21 21 21 21 22 23 23 24 23 23 25 25 26 26 26
31 32 32 32 32 32 31 30 29 27 25 23 22 22 20 19 19 19 18 19 19 17 17 18 19 19 19 19 18 16 16 17 17 17 17 16 13 13 13 12 10 8 7 8 9 10 11 12 13 14 14 15 16 17 17 18 20 20 21 23 23 22 19 18 20 21 18 18 21 22 21 21 22 23 24 25 26 26 25 26 27 27 27 27 27
32 33 33 33 33 33 32 31 30 28 26 24 23 22 20 20 19 19 19 20 20 18 17 17 18 19 19 19 19 18 18 19 19 17 14 12 11 11 11 9 9 9 9 9 12 14 15 15 14 13 14 15 16 17 18 19 20 19 18 18 19 18 16 20 26 21 16 18 19 19 21 22 23 25 26 26 27 27 27 28 28 28 28 28 28
32 33 33 33 33 33 32 31 30 28 26 25 23 23 23 22 22 22 22 22 22 22 21 19 18 18 18 19 19 17 14 16 17 13 9 7 8 10 11 11 12 13 13 13 14 15 15 16 15 13 13 15 16 18 18 18 17 15 15 15 13 11 14 23 28 22 18 19 18 19 21 21 23 26 27 27 27 27 28 29 29 29 29 28 29
32 32 31 31 32 32 32 31 30 28 26 25 24 25 25 25 24 24 24 24 24 23 22 20 18 17 16 17 17 13 12 16 14 9 10 11 12 14 15 15 15 14 15 16 17 18 18 18 16 15 15 15 15 15 14 13 13 14 14 14 11 11 18 24 25 23 25 25 22 22 21 21 24 25 26 27 27 28 29 30 30 30 29 28 29
32 30 30 30 30 31 31 31 30 29 27 26 26 26 26 26 26 25 25 25 24 23 20 17 17 17 17 16 16 14 16 19 15 11 14 15 16 17 18 19 17 15 16 17 18 17 17 16 15 14 13 11 10 10 10 10 12 12 13 13 12 13 17 20 21 23 27 29 28 26 25 27 28 28 29 28 28 30 30 30 30 30 29 29 29
30 30 30 30 30 30 30 30 30 29 28 28 28 28 28 28 27 27 26 25 23 22 19 17 16 17 18 18 17 16 16 16 14 13 15 16 18 19 19 18 17 16 17 16 16 15 13 10 8 7 7 7 7 8 10 10 11 11 11 12 12 13 15 16 18 21 25 31 34 32 32 34 33 32 33 33 33 33 33 32 30 29 28 28 28
27 29 30 30 30 29 30 30 30 30 29 29 29 29 29 29 28 28 27 26 23 22 20 19 19 18 19 19 18 17 14 12 14 15 16 18 20 20 17 15 14 15 16 15 13 11 7 4 4 5 6 7 7 8 9 11 11 11 11 12 12 13 14 16 18 21 24 29 35 37 38 39 39 37 35 36 37 36 35 33 30 29 29 28 28
24 27 29 30 30 30 31 31 31 30 30 30 30 30 30 30 30 29 28 27 25 24 23 22 22 21 21 21 20 19 16 15 17 18 18 19 19 16 14 12 13 13 12 10 8 5 2 3 4 5 6 7 8 9 10 11 11 12 13 13 14 14 15 17 19 22 25 27 32 37 39 41 44 42 39 38 38 37 36 33 31 31 32 32 32
24 25 27 29 30 31 31 31 31 31 31 31 31 30 31 30 30 30 29 28 26 25 24 24 24 23 22 23 21 19 16 16 18 18 17 16 13 11 11 10 10 9 7 5 3 1 1 3 4 5 6 8 9 10 11 11 12 13 13 13 14 16 17 18 19 21 24 26 31 36 38 40 43 43 42 41 40 39 37 34 33 34 35 35 36
Wind_Direction
159 155 165 171 168 161 157 156 154 159 156 158 149 133 123 116 112 111 115 111 108 104 99 88 78 69 68 75 63 59 75 86 91 94 102 118 127 130 128 131 126 124 124 116 121 124 126 125 101 83 56 39 43 56 63 68 70 68 65 67 71 74 72 68 69 69 68 63 62 67 61 56 58 52 52 59 61 70 77 76 76 75 74 72 66
160 155 165 171 174 175 177 180 175 182 182 176 162 141 128 123 117 113 115 112 112 109 103 95 84 69 73 71 57 60 75 91 98 103 104 109 117 117 117 119 118 117 115 112 112 105 105 102 85 77 75 68 63 65 67 71 70 66 64 67 72 73 72 68 69 68 71 72 68 74 74 67 69 65 60 63 60 65 73 74 73 72 75 72 64
161 158 166 171 177 177 181 189 187 191 189 186 170 147 138 134 127 120 113 109 104 93 86 94 94 80 82 67 59 73 85 103 110 111 110 111 111 108 106 103 104 104 105 108 106 97 95 91 82 75 80 84 76 74 72 69 65 62 63 66 71 72 70 65 62 63 67 72 73 80 85 83 80 76 67 60 49 56 62 62 57 56 64 58 44
160 158 163 167 174 173 171 170 168 172 166 172 168 150 144 143 136 128 120 115 97 75 55 58 87 86 82 78 84 97 101 111 115 117 117 117 115 115 113 110 110 108 106 104 100 94 91 86 80 78 79 84 83 79 73 68 64 61 61 62 66 68 68 67 63 63 64 65 72 82 88 91 84 69 47 15 24 41 39 35 25 23 34 22 14
153 153 156 158 165 165 161 153 143 145 145 155 158 150 147 148 147 140 138 138 111 71 30 37 70 96 107 112 110 111 109 108 108 112 113 112 111 113 114 113 113 110 106 100 97 93 90 86 79 78 77 77 77 70 69 68 65 59 57 58 60 64 65 66 66 65 66 66 70 73 74 77 71 59 41 17 18 24 14 10 4 1 6 4 4
146 147 149 153 164 165 161 151 142 143 144 146 142 146 148 149 155 149 147 153 141 88 38 58 80 115 134 124 116 113 112 108 104 105 106 106 105 108 109 110 112 110 107 100 95 93 91 87 76 73 73 71 68 64 64 65 65 59 55 56 58 62 63 63 63 60 60 58 60 61 56 48 41 40 30 2 354 2 358 359 359 355 356 359 359
143 144 147 156 166 171 172 160 155 154 146 143 138 143 147 152 161 153 150 164 159 116 80 87 100 121 129 126 121 112 110 110 108 107 106 108 109 110 112 112 111 109 108 101 91 88 86 82 74 67 69 66 60 60 57 58 62 57 52 54 57 59 60 60 57 55 49 38 33 27 9 0 353 342 332 324 329 338 343 352 355 354 354 355 356
140 144 149 155 163 171 176 166 163 159 147 144 142 146 151 157 163 156 157 164 154 119 110 114 121 129 126 128 125 109 104 107 109 109 106 105 106 107 108 109 108 106 105 98 90 85 80 77 72 64 63 61 56 56 58 59 54 50 50 50 53 55 56 55 52 47 29 8 353 343 334 333 333 326 320 315 314 317 325 337 345 355 359 360 359
138 139 145 148 158 168 171 167 164 158 153 150 146 150 156 157 160 164 168 161 139 110 116 123 123 127 124 126 124 112 106 107 109 106 101 99 98 96 94 98 100 100 99 94 93 87 80 74 68 62 59 57 52 54 61 59 43 42 46 47 49 49 51 51 48 39 25 17 6 2 358 354 351 342 339 337 332 327 325 334 347 360 3 8 6
138 135 138 145 156 165 169 165 161 159 159 158 153 156 160 163 167 170 178 164 130 113 125 132 119 118 119 118 117 115 113 112 114 106 97 94 91 93 94 95 95 97 99 94 91 85 81 75 63 59 56 51 45 45 48 43 34 34 39 41 43 43 45 47 43 38 34 34 32 28 22 17 16 14 16 19 17 14 10 1 360 3 4 7 5
136 133 133 143 156 165 171 167 161 162 166 164 159 161 167 177 179 173 180 162 134 131 135 140 131 124 117 110 108 106 106 104 107 104 94 92 88 91 93 92 92 92 93 88 84 81 78 73 61 56 56 49 36 33 33 30 29 29 32 33 35 37 37 39 36 35 36 34 32 28 23 21 21 24 28 31 28 24 26 14 1 3 2 357 357
133 128 128 139 153 164 172 173 170 171 171 167 165 172 177 179 180 177 174 153 138 139 137 143 142 133 116 104 102 98 99 98 101 103 97 94 89 87 87 85 84 81 82 80 78 77 75 74 67 58 53 45 31 27 26 25 25 25 27 28 29 31 32 33 31 32 31 29 26 23 23 21 21 28 30 26 23 15 8 1 360 1 356 351 352
131 124 127 135 147 160 170 179 182 181 176 172 173 178 181 179 180 180 169 151 138 133 132 141 140 131 117 108 105 100 102 106 107 107 100 92 88 85 84 81 77 75 73 73 73 71 70 71 69 60 47 39 30 24 24 23 23 22 24 26 28 29 30 30 28 28 28 27 24 22 23 22 23 28 27 23 19 10 2 357 360 358 353 351 351
132 126 127 135 143 156 167 176 183 186 186 185 180 174 177 177 173 168 160 154 140 125 119 128 134 122 110 108 106 99 100 110 111 109 104 94 89 85 79 74 70 70 70 71 74 71 67 63 59 56 49 38 27 22 22 21 20 20 22 26 29 29 28 27 26 27 27 25 22 21 21 23 23 23 19 14 11 7 3 360 1 357 353 351 348
138 131 130 135 141 155 161 165 172 182 192 196 188 174 171 164 150 144 146 150 142 129 121 123 137 122 92 93 96 96 96 104 110 110 107 98 89 81 74 70 69 72 74 76 75 73 68 64 58 56 54 40 26 20 19 20 21 20 21 26 27 27 27 26 26 25 25 23 21 20 20 23 25 23 13 1 3 12 12 6 2 359 356 352 348
151 143 136 135 140 152 155 153 160 169 183 195 196 190 187 169 144 134 138 144 143 140 135 121 129 116 88 90 92 95 96 99 109 113 106 96 87 79 76 75 78 80 79 78 74 72 70 65 60 55 53 40 28 20 17 19 22 24 25 26 26 27 28 27 26 24 23 22 21 20 19 22 23 23 9 354 355 13 18 7 2 3 360 354 349
161 159 149 138 143 147 151 149 150 158 166 178 192 199 205 197 165 143 142 141 141 140 135 114 104 98 94 100 98 98 98 96 106 111 104 97 91 85 86 86 85 82 78 77 75 73 68 61 56 52 49 41 34 25 19 19 21 25 27 28 27 26 28 28 26 23 22 21 20 19 17 18 17 16 5 360 358 358 2 358 359 2 357 352 347
169 170 165 150 149 147 151 149 146 151 158 164 175 188 194 192 175 157 146 138 137 137 134 117 107 102 103 109 107 106 100 96 104 110 109 104 101 96 94 90 85 83 80 78 75 71 67 63 59 55 51 46 41 33 27 23 20 21 23 26 26 25 25 25 24 22 21 19 19 17 15 14 11 10 4 5 360 344 335 345 353 355 352 350 346
176 177 175 165 157 152 151 148 150 152 156 162 164 168 167 167 159 145 145 146 143 139 139 128 120 117 117 119 114 110 103 101 107 112 116 110 104 98 93 89 87 87 81 76 72 70 67 66 63 60 56 52 47 41 36 30 25 21 18 19 20 20 18 18 18 17 16 15 14 12 11 9 5 7 5 359 349 332 325 335 344 350 349 347 344
181 184 182 176 167 159 151 146 152 156 160 163 161 162 160 159 149 147 160 158 149 142 143 134 125 125 125 123 115 113 110 109 113 116 118 111 103 97 94 92 90 86 80 76 71 69 67 64 62 58 55 51 47 43 37 32 27 23 17 14 14 12 10 9 9 8 9 8 7 5 4 4 359 357 357 351 342 334 333 336 336 342 346 342 340
185 188 187 184 177 167 155 147 151 158 162 165 171 175 174 172 163 173 174 162 155 147 148 138 126 126 126 125 121 120 121 121 121 120 116 108 104 101 101 95 88 83 78 76 72 68 64 60 57 53 50 46 42 39 34 29 24 20 15 11 8 5 3 1 360 0 0 0 359 358 357 356 354 350 348 348 346 340 335 334 328 332 339 336 336
188 190 191 189 186 176 163 154 153 155 158 167 182 188 188 187 180 182 177 169 166 161 161 151 140 135 130 132 132 132 131 131 126 121 116 109 109 106 102 94 86 83 75 72 68 65 61 56 52 47 45 39 35 32 26 24 19 14 10 6 3 359 357 354 353 353 353 354 353 352 351 349 348 345 345 345 343 336 330 328 323 325 330 330 333
192 193 192 192 192 187 175 164 161 159 160 170 182 188 188 186 182 182 180 177 176 177 174 162 151 139 133 138 140 141 136 134 129 122 120 114 111 106 99 93 84 79 73 68 63 61 56 50 45 37 33 30 25 21 17 14 10 8 4 0 357 354 351 348 347 347 348 350 349 348 347 345 343 341 342 340 335 329 324 323 320 320 323 326 330
194 194 194 195 196 195 188 179 175 173 175 183 185 184 185 187 188 190 188 186 184 180 177 170 156 141 135 143 148 150 144 139 135 128 122 115 111 106 97 90 80 73 66 63 57 51 47 39 33 26 20 16 12 9 6 3 360 358 355 352 350 348 346 344 342 343 342 343 345 345 344 343 340 339 339 335 329 325 321 318 316 316 318 322 323
193 193 195 197 199 199 198 194 190 190 194 200 195 187 189 193 202 210 208 200 192 181 178 175 161 154 147 149 157 160 155 149 141 131 122 113 108 102 94 85 73 64 53 47 42 33 29 22 18 14 7 1 357 355 353 352 351 349 348 347 345 343 342 340 339 338 337 337 339 340 340 339 337 336 336 334 330 327 325 322 317 314 313 316 317
192 193 196 198 202 202 203 203 202 204 206 210 210 205 194 187 206 223 226 217 200 185 178 179 177 176 165 155 159 165 163 154 145 134 124 114 105 96 85 74 60 47 32 21 14 8 3 358 356 355 351 347 343 341 342 344 344 343 343 342 341 340 338 337 335 334 332 331 332 333 333 332 331 329 329 329 328 327 326 324 320 317 312 310 311
195 196 198 200 204 204 206 209 209 210 213 216 218 215 205 200 205 216 228 225 209 191 181 180 180 179 174 169 168 174 173 160 152 143 133 126 117 101 77 43 22 12 2 349 343 338 335 335 335 335 335 335 335 334 337 339 338 336 334 333 335 334 333 333 332 331 330 328 328 327 325 323 321 320 320 320 321 322 322 321 320 318 315 310 309
199 200 201 203 206 208 210 212 213 213 216 222 225 221 217 217 216 220 227 223 210 195 193 186 179 175 171 173 179 180 176 169 164 155 149 149 142 127 103 347 325 327 327 318 315 315 317 319 321 323 324 326 328 328 329 329 324 320 316 315 319 321 322 325 326 326 326 325 324 324 322 318 315 313 312 313 313 316 317 317 317 314 313 312 309
204 204 205 206 207 210 213 216 217 216 218 223 227 227 224 227 226 227 233 234 224 209 207 198 186 177 169 170 173 175 176 179 180 174 177 185 188 202 232 267 284 296 301 297 297 300 303 306 310 313 314 317 320 319 318 314 311 311 309 310 315 316 315 318 321 324 325 325 326 324 322 319 317 314 311 310 309 311 314 314 315 313 311 310 309
207 209 211 210 209 212 215 218 221 221 222 224 227 230 230 232 232 228 234 238 239 230 219 205 200 193 183 182 181 184 189 194 202 200 211 222 228 249 261 269 275 279 280 282 285 289 293 297 300 303 306 310 313 313 312 311 311 313 315 321 326 323 319 322 324 325 326 328 329 327 324 322 321 320 318 315 312 311 311 311 311 311 310 309 307
211 213 214 213 213 215 217 219 224 225 227 229 229 232 234 236 233 229 231 235 239 240 233 219 214 213 210 210 208 211 215 221 229 228 233 243 250 256 261 268 272 274 275 276 280 286 289 290 294 297 301 304 305 306 306 306 308 311 320 328 331 331 331 332 332 329 327 327 327 326 325 324 322 322 320 318 315 311 308 307 307 307 306 304 302
215 215 216 216 216 217 219 220 224 228 231 233 233 235 236 236 233 231 231 233 237 239 239 236 230 230 232 233 234 235 237 241 245 247 247 251 256 260 263 266 269 273 276 279 281 285 285 286 289 292 297 297 298 302 304 306 310 316 325 331 333 340 339 336 335 333 330 328 325 324 322 320 317 314 312 310 309 307 304 302 302 302 303 301 299
217 217 218 220 221 222 223 224 227 230 234 236 238 238 236 236 234 232 231 231 234 236 236 239 241 242 243 244 245 247 249 250 251 253 254 257 262 266 269 269 269 273 276 279 281 281 282 284 287 289 293 295 302 309 310 312 316 321 326 329 336 342 337 333 333 332 330 328 327 326 322 317 313 309 308 306 305 304 301 298 297 298 300 301 300
219 220 221 222 224 226 226 228 231 233 236 238 240 240 238 237 236 233 230 230 232 232 234 237 240 243 245 247 248 250 253 255 256 257 258 261 264 268 270 270 272 274 277 280 282 283 286 291 295 298 300 303 313 321 320 322 325 327 326 325 330 333 330 327 329 331 332 331 331 329 326 323 319 315 311 308 306 304 300 297 296 297 298 298 298
223 223 225 225 226 228 230 231 233 236 237 239 241 242 241 238 237 234 230 231 232 231 232 235 238 242 245 247 250 253 255 259 261 263 265 267 271 274 273 274 277 281 283 286 288 291 295 302 306 308 309 312 320 329 335 341 341 336 332 328 328 329 329 327 328 331 331 333 335 331 331 330 324 320 316 315 314 311 305 302 300 300 300 299 298
225 226 227 227 228 229 231 233 234 235 236 238 240 241 241 238 235 234 232 233 235 233 231 233 237 243 246 248 251 254 256 262 267 270 272 275 277 280 282 286 290 290 291 293 295 299 305 311 313 313 313 316 320 330 342 342 338 337 337 335 332 330 331 332 332 333 331 332 332 330 330 328 325 324 323 325 324 321 315 310 308 307 306 304 301
228 228 228 229 230 229 230 231 231 232 234 235 237 237 238 237 235 233 235 238 238 237 236 236 239 244 247 250 254 257 260 264 270 274 278 279 280 284 291 296 298 299 302 305 303 305 312 315 315 313 314 318 321 329 338 336 331 330 336 340 333 328 327 328 331 333 332 330 325 326 328 329 332 333 332 332 331 330 329 326 323 321 317 313 310
231 231 231 231 232 232 232 230 229 229 230 231 233 235 237 238 237 236 239 242 241 240 239 240 241 245 248 252 258 260 261 263 266 270 274 277 282 288 294 297 303 310 318 319 313 314 320 319 321 322 319 320 324 332 333 325 319 322 333 335 326 324 324 324 331 335 333 330 327 327 330 336 341 341 339 340 340 340 341 340 338 334 329 327 326
232 232 233 234 234 235 234 232 230 227 226 227 228 231 234 236 236 236 239 241 241 239 239 239 241 246 251 257 262 262 260 262 267 273 275 275 279 285 290 297 307 317 321 321 319 324 332 333 337 343 335 326 327 329 324 314 311 321 329 322 318 323 325 328 334 338 339 334 332 333 338 345 346 346 348 348 347 346 347 348 345 341 339 340 339
233 234 234 235 234 234 234 232 229 226 224 224 224 226 229 232 233 234 236 239 241 240 239 240 245 250 253 259 266 267 264 266 273 280 280 277 280 285 291 302 310 309 307 310 314 318 330 338 339 342 335 329 327 321 317 313 313 318 319 315 320 328 329 332 334 341 345 339 338 344 348 350 348 348 352 352 350 350 352 353 351 349 348 347 345
233 233 234 234 234 233 233 231 227 225 223 222 223 224 227 229 231 233 235 240 245 246 245 245 247 251 253 259 266 270 269 270 276 280 283 285 290 297 302 310 311 297 291 301 305 302 316 328 327 329 324 320 321 318 314 314 314 316 318 323 329 331 333 336 340 348 348 343 345 350 351 350 347 349 354 355 353 353 355 354 352 352 350 348 346
232 231 232 231 232 232 231 230 227 225 223 224 226 228 230 232 234 237 240 245 250 253 254 252 250 251 253 257 261 268 271 272 270 270 277 281 289 301 301 302 300 289 284 293 295 291 305 314 310 309 309 309 312 314 314 314 315 315 318 325 330 333 337 339 345 349 347 349 351 350 350 348 346 350 354 353 352 353 354 354 352 352 351 349 347
232 231 231 230 230 230 229 229 227 225 224 227 230 232 236 239 244 247 247 251 255 259 261 256 251 251 253 256 257 257 260 262 259 259 263 266 275 287 286 283 282 284 293 288 280 280 288 299 302 300 299 301 303 304 308 310 310 310 314 322 327 333 339 338 342 348 349 351 350 348 347 346 346 349 351 351 351 351 352 352 352 352 351 349 348
233 231 230 229 229 228 227 227 226 225 225 227 231 234 239 243 247 250 251 253 255 258 260 255 249 246 247 252 255 251 249 251 253 260 265 259 264 270 265 267 271 280 296 290 283 282 280 285 294 293 292 293 295 298 303 306 307 311 321 324 326 334 336 329 332 342 350 347 346 345 343 344 345 346 347 349 348 348 349 350 350 350 349 348 347
233 232 230 228 228 227 227 227 227 226 226 227 231 234 238 240 241 244 246 247 247 249 252 252 250 245 242 246 252 256 261 261 258 260 260 250 261 267 259 264 271 270 276 281 282 281 275 277 283 282 284 289 292 298 304 308 312 321 330 328 331 334 321 318 323 331 338 340 342 343 342 342 341 342 344 345 345 345 346 346 347 347 346 346 346
234 233 232 231 230 230 229 229 229 228 227 228 231 234 237 238 239 241 241 242 243 243 245 250 254 253 252 252 251 251 256 261 259 246 240 245 259 264 258 263 273 268 266 271 272 274 274 275 277 278 285 294 298 303 309 315 323 333 334 330 329 316 308 314 318 320 327 335 341 343 342 339 338 340 342 341 341 342 342 342 343 344 346 346 346
234 234 234 233 233 232 232 232 231 230 229 230 232 235 238 239 240 242 244 246 247 248 251 256 259 258 259 260 254 242 236 239 240 233 239 246 249 251 249 255 265 261 258 264 268 276 281 279 279 282 291 306 313 319 326 334 339 342 338 333 330 320 317 321 321 323 327 331 337 340 341 340 339 340 341 341 340 339 340 340 341 343 346 347 347
234 234 234 234 234 233 233 233 233 232 232 232 234 237 239 241 242 244 247 249 251 254 259 262 260 255 254 256 253 247 241 238 236 235 240 244 244 244 244 249 256 255 256 265 273 284 290 287 290 297 312 328 337 338 342 349 352 352 348 343 342 339 337 334 333 335 332 329 333 338 340 337 337 339 340 341 340 340 341 341 343 347 348 349 349
233 233 234 234 235 235 234 233 233 233 233 234 236 238 240 242 244 246 248 250 252 254 256 257 254 248 249 252 250 247 246 247 249 242 237 242 245 245 245 250 257 258 261 267 274 282 289 303 325 342 350 351 352 351 352 355 354 354 351 347 345 342 339 339 338 339 337 334 333 336 337 334 333 336 339 339 339 341 342 343 348 353 353 353 353
233 233 233 234 234 234 234 234 233 232 232 234 235 237 239 241 243 245 246 248 250 250 250 252 250 245 245 246 246 246 243 236 241 243 244 247 246 244 245 250 256 257 257 259 261 267 291 338 351 358 2 1 1 357 355 355 352 351 350 346 343 341 340 341 340 338 338 337 332 331 334 333 330 332 335 336 336 338 340 343 350 355 355 354 354
234 233 233 232 232 233 233 234 233 232 232 233 235 236 238 239 241 243 245 246 246 247 247 247 247 245 243 245 247 250 249 238 238 246 251 249 238 231 237 240 241 238 232 230 228 244 330 1 8 10 7 2 0 357 354 352 350 349 348 346 343 343 344 344 342 340 338 336 331 329 331 330 328 328 331 333 333 335 337 341 348 352 353 351 351